Cedar City, UT

7:20 AM MDT on May 23, 2017 (GMT -0600)
Cedar City Regional

Weather History for KCDC - December, 2013

Change the Weather History Date:

Thursday, December 12, 2013

  Actual Average Record
Temperature  
Mean Temperature 12 °F 29 °F  
Max Temperature 27 °F 42 °F 63 °F (1950)
Min Temperature -3 °F 16 °F -15 °F (1949)
Degree Days  
Heating Degree Days 53 36  
Month to date heating degree days 601 421  
Since 1 July heating degree days 2129 1863  
Cooling Degree Days 0 0  
Month to date cooling degree days 0 0  
Year to date cooling degree days 667 588  
Moisture  
Dew Point 4 °F    
Average Humidity 72    
Maximum Humidity 88    
Minimum Humidity 55    
Precipitation  
Precipitation 0.00 in 0.03 in 0.29 in (1992)
Month to date precipitation 0.83 0.31  
Year to date precipitation 14.90 10.78  
Sea Level Pressure  
Sea Level Pressure 30.47 in    
Wind  
Wind Speed 2 mph (NE)    
Max Wind Speed 7 mph    
Max Gust Speed 7 mph    
Visibility 8 miles    
Events      
T = Trace of Precipitation, MM = Missing Value Source: NWS Daily Summary

Daily Weather History Graph

Daily Weather History Graph

Search for Another Location

Airport or City:

Trip Planner

Search our weather history database for the weather conditions in past years. The results will help you decide how hot, cold, wet, or windy it might be!

Date:

Astronomy

Dec. 12, 2013 Rise Set
Actual Time 7:38 AM MST 5:14 PM MST
Civil Twilight 7:09 AM MST 5:43 PM MST
Nautical Twilight 6:36 AM MST 6:16 PM MST
Astronomical Twilight 6:04 AM MST 6:48 PM MST
Moon 2:20 PM MST (12/12) 3:08 AM MST (12/12)
Length of Visible Light 10h 34m
Length of Day
9h 35m
Waxing Gibbous, 81% of the Moon is Illuminated
Dec 12
Waxing Gibbous
Dec 17
Full
Dec 25
Last Quarter
Jan 1
New
Jan 7
First Quarter

Hourly Weather History & Observations

Time (MST) Temp. Windchill Dew Point Humidity Pressure Visibility Wind Dir Wind Speed Gust Speed Precip Events Conditions
12:53 AM 3.9 °F - -0.0 °F 84% 30.58 in 7.0 mi Calm Calm - N/A   Clear
1:53 AM 3.0 °F - -0.0 °F 87% 30.58 in 9.0 mi Calm Calm - N/A   Clear
2:53 AM 3.0 °F -4.4 °F -0.9 °F 84% 30.57 in 8.0 mi East 3.5 mph - N/A   Clear
3:28 AM -0.0 °F -7.9 °F -4.0 °F 83% 30.38 in 1.8 mi WNW 3.5 mph - N/A   Clear
3:39 AM 1.0 °F - -2.9 °F 83% 30.39 in 3.0 mi Calm Calm - N/A   Clear
3:53 AM -0.9 °F -8.9 °F -5.1 °F 83% 30.58 in 6.0 mi East 3.5 mph - N/A   Clear
4:53 AM -2.0 °F -10.1 °F -8.0 °F 76% 30.60 in 8.0 mi North 3.5 mph - N/A   Clear
5:53 AM 1.9 °F - -4.0 °F 76% 30.58 in 10.0 mi Calm Calm - N/A   Clear
6:53 AM 1.9 °F -5.6 °F -2.9 °F 80% 30.58 in 10.0 mi ESE 3.5 mph - N/A   Clear
7:53 AM 1.9 °F -5.6 °F -2.9 °F 80% 30.60 in 9.0 mi NE 3.5 mph - N/A   Clear
8:53 AM 7.0 °F - 3.0 °F 84% 30.58 in 8.0 mi Calm Calm - N/A   Clear
9:53 AM 10.0 °F 3.6 °F 6.1 °F 84% 30.59 in 8.0 mi NE 3.5 mph - N/A   Clear
10:53 AM 18.0 °F - 10.0 °F 71% 30.52 in 10.0 mi Calm Calm - N/A   Clear
11:53 AM 19.9 °F 13.4 °F 10.0 °F 65% 30.51 in 10.0 mi ENE 4.6 mph - N/A   Clear
12:53 PM 21.9 °F 14.5 °F 10.9 °F 63% 30.44 in 10.0 mi NE 5.8 mph - N/A   Clear
1:53 PM 24.1 °F 18.2 °F 12.0 °F 60% 30.40 in 10.0 mi NE 4.6 mph - N/A   Clear
2:53 PM 26.1 °F 21.9 °F 12.9 °F 58% 30.37 in 10.0 mi ENE 3.5 mph - N/A   Clear
3:53 PM 26.1 °F - 12.9 °F 58% 30.38 in 10.0 mi Calm Calm - N/A   Clear
4:53 PM 25.0 °F - 12.9 °F 60% 30.38 in 10.0 mi Calm Calm - N/A   Clear
5:53 PM 16.0 °F 10.4 °F 9.0 °F 74% 30.39 in 10.0 mi NNW 3.5 mph - N/A   Clear
6:53 PM 12.9 °F 5.2 °F 8.1 °F 81% 30.40 in 10.0 mi NE 4.6 mph - N/A   Clear
7:53 PM 10.9 °F 1.4 °F 6.1 °F 81% 30.41 in 9.0 mi ENE 5.8 mph - N/A   Clear
8:53 PM 12.0 °F 5.9 °F 7.0 °F 80% 30.38 in 9.0 mi SE 3.5 mph - N/A   Clear
9:53 PM 15.1 °F - 10.0 °F 80% 30.34 in 6.0 mi Calm Calm - N/A   Haze
10:53 PM 8.1 °F - 3.9 °F 83% 30.34 in 6.0 mi Calm Calm - N/A   Clear
11:53 PM 10.0 °F - 5.0 °F 80% 30.31 in 8.0 mi Calm Calm - N/A   Clear